Retour au catalogue

STARLINK-37953

ActifCommunicationsSSO
NORAD 69694·PAYLOAD·🇺🇸 United States

Lancé Jun 25, 2026 depuis Vandenberg Space Force Base

Loading…

Prochains Passages (prochaines 24 heures)

TLE

FraisSource: CelesTrak SupGP

Époque: Sep 14, 2026, 23:05 UTC

1 69694C 26145T   26257.96229167  .00091788  00000+0  28498-2 0  2578
2 69694  97.2846 104.7357 0001771  91.6421  11.6997 15.33387173    13

Suivez STARLINK-37953 en temps réel avec AllMySat

Download on the App Store